RH
66 60 39 57 77 82 58 28 29 20 17 24 35 45 52 56 58 60 61 73 76 86 99 98 74 87 100 100 100 100 99 98 94 98 98 89 89 90 88 92 92 98 100 100
54 58 42 42 60 51 56 56 32 27 20 16 29 44 54 55 56 64 67 72 79 84 88 92 88 75 88 97 99 100 100 98 95 100 100 95 89 87 86 89 93 94 97 100
52 40 53 58 60 47 43 42 46 49 32 45 41 52 58 59 65 69 73 77 81 83 86 79 89 91 80 85 94 100 100 100 100 99 99 97 95 91 88 87 87 88 88 90
57 42 80 46 43 40 43 42 44 40 48 66 72 84 83 77 76 76 78 81 84 84 85 80 72 83 78 77 91 100 100 100 100 100 100 100 99 97 94 91 89 87 87 88
60 53 32 56 42 56 60 54 58 48 62 77 78 72 85 82 83 84 86 87 89 89 87 87 74 82 78 72 73 85 98 100 100 100 100 100 100 99 99 98 92 91 91 91
50 58 55 50 35 36 48 92 63 56 64 65 58 75 89 92 84 84 85 88 90 90 88 88 86 96 77 80 74 76 81 94 100 100 99 100 100 100 100 100 99 94 92 94
55 54 37 45 45 42 79 87 77 74 83 70 74 96 98 91 87 88 87 90 90 92 90 92 97 97 93 99 84 94 100 98 91 97 99 99 99 99 100 100 99 100 100 96
59 65 59 48 48 70 67 68 95 88 83 83 96 100 98 92 94 92 89 92 92 89 94 93 87 91 98 91 99 100 99 98 93 90 99 99 100 99 99 100 99 100 100 100
64 49 44 58 79 94 92 84 93 80 80 92 96 92 92 98 99 100 98 97 95 92 93 93 90 84 94 94 100 100 100 100 100 100 100 100 99 100 100 100 100 100 100 100
95 91 97 100 97 94 98 100 100 94 94 93 90 90 85 82 86 94 97 96 94 96 95 96 95 93 90 92 100 100 99 100 100 100 100 100 99 99 100 100 100 100 100 100
89 84 97 100 99 100 100 99 99 91 86 84 84 87 89 92 97 100 100 99 96 96 99 99 93 83 82 93 99 99 100 100 100 100 99 99 99 99 100 100 100 100 100 100
97 98 98 98 98 100 99 99 99 95 96 97 95 97 98 100 100 100 100 99 98 92 94 90 85 84 88 93 100 99 99 99 99 100 100 100 100 100 100 100 100 100 100 100
98 98 98 99 98 99 98 98 98 98 99 94 99 100 100 99 94 93 93 94 89 90 86 82 81 84 91 96 98 99 99 100 100 100 100 100 100 100 99 100 100 100 100 100
97 97 97 97 98 98 99 98 98 99 99 97 98 99 99 94 91 88 89 93 90 88 85 86 86 87 92 96 94 96 100 100 100 100 100 100 100 100 98 95 99 100 99 95
97 96 97 98 97 97 98 97 97 100 99 93 94 99 98 96 90 86 87 88 89 88 88 89 88 89 94 95 93 94 96 99 99 98 97 95 95 98 99 94 91 92 95 96
98 88 84 84 90 96 100 100 99 100 93 91 92 92 92 95 90 87 87 84 84 84 88 92 94 93 94 95 94 94 94 98 100 100 100 99 99 99 99 100 100 99 97 97
82 83 85 82 84 91 99 100 99 100 100 100 100 97 95 95 93 90 87 87 86 87 88 90 94 95 96 97 97 95 94 97 100 100 100 100 100 100 100 100 96 94 93 94
87 90 88 92 92 93 96 100 100 100 98 97 96 94 94 95 96 93 91 91 92 90 86 88 92 95 94 93 96 97 96 99 100 98 98 99 100 100 98 96 96 93 95 94
88 90 92 94 100 100 96 94 94 96 97 97 97 97 97 96 95 95 94 95 95 98 90 90 92 93 93 94 94 95 95 96 96 97 96 97 98 98 97 98 96 81 52 31
92 94 86 86 85 84 85 86 92 96 97 98 99 98 97 96 96 95 95 96 95 95 93 92 93 94 94 95 96 95 96 96 96 95 95 95 95 95 85 60 39 28 23 20
76 78 79 82 84 89 94 98 97 96 97 96 95 95 95 96 96 96 100 100 96 95 96 94 94 95 95 96 98 97 96 96 97 98 97 90 52 32 25 23 21 19 18 18
77 77 82 84 84 85 86 90 93 95 96 97 96 96 96 97 96 96 96 99 96 96 96 95 95 93 94 94 95 95 96 96 87 76 58 36 27 24 23 23 21 20 20 20
82 83 82 82 84 87 90 92 93 94 95 95 95 96 99 97 98 100 100 98 98 96 96 96 96 95 95 95 95 93 78 50 42 37 30 27 26 24 22 21 21 20 20 20
84 81 82 83 87 91 95 90 93 94 94 96 95 95 100 100 100 100 100 97 96 96 96 96 97 97 96 95 91 61 42 41 35 32 29 26 25 23 23 22 22 22 22 22
84 84 84 87 100 100 89 85 94 93 94 96 94 94 94 95 99 99 100 97 96 98 97 97 97 97 96 96 95 88 54 38 33 31 29 27 26 26 26 26 26 26 26 27
100 100 100 89 96 100 100 100 100 100 100 100 100 100 96 95 95 97 96 96 96 97 96 96 94 80 63 54 48 45 42 40 37 31 29 28 28 28 28 28 27 27 28 29
99 98 100 100 100 100 100 100 100 100 100 100 100 100 100 96 95 97 97 97 97 96 96 96 95 95 96 96 95 95 94 93 84 70 61 33 27 28 29 29 29 28 29 30
Wind_Speed
15 19 11 2 12 10 10 20 17 16 15 12 14 12 14 14 13 11 10 10 13 15 15 16 21 17 8 9 12 11 13 14 16 17 17 18 16 15 13 13 14 14 17 18
18 9 12 3 4 3 12 14 16 12 19 11 12 10 13 13 13 10 10 11 11 13 13 17 21 23 19 9 4 13 16 15 15 18 19 19 19 18 17 16 16 17 17 18
7 14 5 4 9 2 3 3 4 10 3 5 12 12 12 12 11 10 10 10 11 12 11 11 13 16 20 22 14 2 16 18 16 16 17 20 21 20 21 20 19 18 18 19
10 11 3 4 10 3 5 4 5 5 6 8 13 17 17 12 12 10 10 11 11 11 11 12 9 6 9 18 18 10 6 12 16 17 16 17 20 22 22 22 22 22 22 20
5 8 2 5 9 9 8 6 11 4 9 15 18 20 16 12 12 11 11 10 10 9 10 12 11 8 4 6 14 13 6 3 10 16 19 20 19 20 21 24 24 24 23 22
6 5 3 5 15 19 4 3 6 6 10 11 12 5 5 7 9 10 11 11 9 8 10 12 12 11 8 7 8 8 7 6 8 13 16 20 23 23 20 20 21 23 22 23
5 3 6 14 20 18 4 8 14 10 16 9 7 5 6 4 9 10 11 11 9 9 11 12 11 10 9 8 8 7 5 5 6 9 15 19 24 24 20 26 24 23 23 23
4 3 4 23 11 10 13 20 10 14 9 8 10 11 8 7 9 10 10 9 10 10 11 12 12 11 9 8 7 9 8 7 5 7 6 11 19 21 27 22 24 26 25 26
5 6 14 17 14 17 17 6 9 7 3 8 10 10 8 8 8 8 8 9 11 10 11 13 13 12 11 11 9 8 9 9 6 4 2 1 6 17 23 30 27 24 27 29
7 4 10 16 16 16 15 14 11 13 12 10 11 9 8 7 8 8 9 10 11 11 12 13 14 13 12 11 10 10 10 10 9 9 7 4 4 6 12 20 23 23 23 24
10 9 14 19 21 14 13 14 15 15 16 13 11 9 7 8 8 8 8 9 10 11 12 13 14 15 14 12 12 11 11 11 11 11 11 10 8 8 7 8 7 12 17 19
3 12 3 11 16 12 11 13 12 12 15 15 11 9 8 8 8 8 9 9 10 11 12 13 14 15 14 12 12 12 11 12 12 13 14 15 15 17 17 13 11 9 9 8
6 4 14 4 18 14 15 13 12 12 13 12 10 9 8 8 9 9 9 10 12 13 12 13 13 14 13 14 13 13 12 12 13 14 16 18 19 20 25 22 19 16 14 14
12 9 5 15 10 12 12 11 10 11 11 11 9 7 7 8 7 9 10 11 12 12 13 14 13 13 15 14 13 14 13 14 14 15 18 21 23 26 27 30 34 33 27 26
8 9 7 7 10 9 8 8 8 8 8 8 7 7 8 7 7 9 9 9 11 12 12 13 13 14 15 14 13 13 14 13 14 16 17 19 22 24 27 31 35 36 33 31
2 7 7 8 9 10 9 8 7 7 6 5 5 6 6 7 7 6 7 8 9 10 11 11 12 13 13 13 12 13 15 14 15 17 17 20 22 25 28 28 29 30 31 28
4 7 9 9 10 9 8 7 7 6 6 4 3 3 4 5 4 4 5 7 8 8 8 9 11 11 11 11 11 13 15 15 15 17 18 18 20 22 23 24 27 27 26 21
5 4 6 6 7 7 7 7 5 4 4 3 3 2 2 2 3 4 5 6 6 6 6 7 8 8 8 9 11 12 13 14 15 18 19 19 20 20 21 22 22 23 22 19
6 5 6 6 6 5 4 4 4 3 3 2 2 1 1 0 2 3 3 3 4 4 5 6 6 7 7 8 10 11 13 14 16 17 18 19 17 17 17 18 19 20 21 20
6 6 6 6 6 5 5 3 3 3 2 1 1 1 1 1 1 2 3 3 3 3 3 3 4 5 6 7 7 9 11 13 15 16 15 14 14 14 14 15 16 18 18 18
8 8 7 6 7 7 7 6 4 2 1 1 1 1 0 1 1 2 4 3 2 1 2 2 2 3 4 5 6 8 9 10 11 12 11 10 11 12 13 14 15 16 16 16
8 8 7 7 7 7 7 7 7 6 5 5 5 4 4 3 3 2 1 2 2 3 2 1 2 3 4 6 7 7 8 8 8 9 10 11 12 13 14 14 15 16 15 15
7 7 7 7 7 7 7 6 6 5 5 4 4 4 3 3 2 3 3 2 3 3 2 2 3 3 4 6 7 7 7 8 10 11 12 13 13 13 14 14 14 14 13 13
6 6 7 7 7 5 5 5 5 5 5 4 4 4 5 4 4 4 3 3 4 3 2 3 4 6 6 8 9 9 10 11 11 12 12 12 12 12 13 12 12 12 11 10
5 6 7 6 6 5 5 4 5 4 4 3 3 3 2 2 3 2 3 4 4 4 5 5 7 8 8 10 10 11 11 11 12 12 11 11 11 11 11 11 10 10 9 9
3 3 4 3 3 3 3 3 2 1 2 3 3 4 4 4 4 3 3 3 4 4 5 7 8 9 10 11 11 11 12 11 11 10 10 9 9 9 9 8 8 7 6 5
2 3 3 3 3 2 2 2 2 2 3 3 3 4 4 4 4 4 4 4 4 5 6 6 7 8 9 9 9 10 10 9 9 7 7 7 7 7 7 7 6 6 5 4
Wind_Direction
321 318 335 213 166 202 254 240 236 232 234 185 184 176 159 155 152 144 110 82 63 56 41 50 38 23 34 170 185 204 206 202 212 210 206 199 200 195 195 198 198 197 210 214
313 278 334 149 138 197 182 236 246 252 249 234 159 148 157 153 142 123 95 79 69 57 40 40 50 27 16 11 145 210 194 206 219 214 207 204 203 203 203 202 203 201 202 208
297 336 322 93 353 354 192 162 279 216 248 173 196 176 156 152 128 103 81 63 51 43 27 24 25 32 16 5 358 2 201 204 216 224 215 212 207 207 206 208 210 211 213 209
301 316 50 36 6 331 314 314 316 274 153 128 96 82 74 83 101 86 72 57 46 36 22 24 10 21 23 357 332 354 120 189 209 213 223 225 216 213 211 211 212 213 213 214
309 315 287 52 11 360 342 320 329 224 139 121 123 106 72 68 73 71 62 53 44 37 32 25 17 14 27 343 313 320 334 205 211 212 213 218 227 222 220 218 216 219 220 219
324 316 352 34 340 328 275 223 317 162 140 144 172 155 93 57 61 62 57 48 40 32 34 29 19 11 10 7 335 308 304 263 251 238 224 223 224 224 225 224 221 219 220 223
302 279 289 0 336 323 262 9 329 103 77 70 85 73 95 79 58 55 50 39 38 31 32 28 23 24 17 20 348 354 335 310 266 251 244 237 231 229 226 232 230 222 221 222
318 285 281 3 350 5 324 319 313 107 115 143 115 123 115 71 52 47 38 28 30 26 23 17 13 23 29 22 18 5 9 0 323 294 248 235 227 224 228 233 234 225 222 221
308 321 324 343 339 335 335 318 323 149 156 151 125 94 80 71 55 46 36 25 25 24 19 10 11 13 10 19 27 27 18 21 22 19 349 223 191 210 214 228 228 225 218 214
305 72 27 20 16 8 20 37 66 78 99 111 104 91 85 72 54 43 32 26 22 20 19 12 12 10 16 19 24 29 30 30 31 40 45 62 124 181 199 207 210 211 206 204
285 343 345 19 12 14 37 50 63 78 82 86 94 87 79 66 53 48 40 34 23 21 20 16 14 14 17 22 35 40 41 47 53 59 66 73 92 112 133 153 173 207 200 197
342 355 14 16 11 19 51 55 68 67 76 70 72 73 64 60 54 50 42 39 32 28 22 20 18 19 26 37 50 53 56 60 66 73 82 91 97 100 97 99 109 123 147 174
324 328 37 341 24 33 50 57 68 75 82 71 55 56 55 54 48 44 33 31 33 31 27 24 25 30 40 48 56 69 78 83 87 92 95 97 98 102 104 99 99 102 116 130
17 22 354 19 360 26 32 35 48 52 58 61 49 41 39 41 42 42 37 35 32 32 32 33 35 44 51 57 63 74 86 99 102 105 107 107 108 109 112 113 107 103 107 113
22 30 22 1 7 20 36 39 36 35 41 45 44 39 32 30 29 35 33 35 34 32 36 38 40 48 54 59 66 78 86 96 104 109 112 115 117 116 117 119 119 116 118 118
328 15 9 14 9 11 21 30 34 18 21 19 19 26 33 34 32 31 35 38 36 38 38 40 46 51 58 66 74 89 92 96 98 101 106 111 115 115 116 114 117 122 124 123
12 351 356 2 1 1 8 11 19 10 15 1 4 17 23 29 29 33 41 44 43 39 38 43 49 56 67 79 87 93 99 104 108 110 111 114 116 117 120 122 124 126 128 128
33 5 357 353 345 346 354 4 359 355 341 324 340 346 359 22 34 42 47 45 43 35 37 48 54 62 74 86 93 101 106 109 112 115 119 122 125 129 130 131 133 133 130 131
29 15 10 2 356 347 346 344 342 322 306 290 278 246 202 79 52 40 41 39 39 31 39 52 62 73 84 96 103 112 120 125 128 132 136 137 134 132 132 132 133 135 137 139
37 27 13 360 1 7 7 4 344 328 318 288 249 194 147 102 51 27 14 10 33 57 62 64 72 88 101 108 115 127 134 140 143 143 144 143 142 141 142 142 140 140 141 143
29 24 20 17 20 21 23 28 39 60 97 166 157 144 101 115 85 71 37 26 15 53 72 91 104 119 134 137 143 148 149 150 151 151 154 155 149 143 142 142 141 142 144 146
25 23 25 27 27 29 31 31 33 44 64 84 97 101 86 74 51 27 23 65 34 57 68 104 132 138 143 151 155 161 163 164 170 173 164 155 151 150 149 149 149 149 148 148
23 27 27 30 33 36 36 40 49 56 66 79 87 91 82 71 78 55 18 39 68 65 73 103 124 135 150 169 169 160 157 161 161 156 155 154 152 152 153 153 153 153 152 151
15 22 25 30 36 38 40 40 47 55 64 65 72 87 83 55 51 68 77 75 73 68 87 110 120 129 143 146 140 142 146 147 149 150 151 152 153 155 155 155 157 157 156 155
9 14 18 29 30 26 30 33 36 34 43 48 67 76 77 66 108 97 88 89 90 93 103 111 123 126 134 139 142 145 150 152 152 151 152 156 156 156 158 158 160 162 164 164
38 23 22 38 47 38 29 29 29 45 68 71 74 87 99 103 101 96 96 97 102 107 117 120 122 123 128 132 136 140 139 139 143 146 151 155 158 161 165 168 168 168 173 176
32 49 44 53 57 61 75 104 92 73 91 101 104 102 105 107 108 107 108 108 113 121 127 130 134 138 138 140 142 142 143 146 147 154 160 168 172 175 179 182 183 183 188 197